Location: Central Coast NSW, Australia
(33.2407°S, 151.4316°E)
Time: 03:19:34
(UTC+10:00)

Envisat - Pass Details

Date: 01 April 2019
Orbit: 764 x 766 km, 98.2° (Epoch: 19 April)

Event Time Altitude Azimuth Distance (km) Brightness Sun altitude
Rises 19:43:33 0° 159° (SSE) 3,266 6.1 -11.9°
Reaches altitude 10° 19:46:01 10° 152° (SSE) 2,331 5.3 -12.4°
Maximum altitude 19:50:51 41° 81° (E) 1,116 3.4 -13.4°
Drops below altitude 10° 19:55:38 10° 12° (NNE) 2,303 5.3 -14.4°
Sets 19:58:02 0° 4° (N) 3,220 6.1 -14.9°
